This is the latest recevied weather packets stored in our database for station/object KE5KUL-13. If no packets are shown the sender has not sent any weather packets the latest 10 day(s).
| Time | Temp. | Humidity | Pressure | Rain* | Wind** | Luminosity | Snow |
|---|---|---|---|---|---|---|---|
| 1778005218 | 20.56° C | 35% | 1012.6 hPa | 0 mm | - | - | - |
| 1778004618 | 20° C | 37% | 1012.9 hPa | 0 mm | - | - | - |
| 1778004018 | 18.89° C | 39% | 1012.6 hPa | 0 mm | - | - | - |
| 1778003418 | 19.44° C | 37% | 1012.5 hPa | 0 mm | - | - | - |
| 1778002819 | 18.89° C | 39% | 1012.2 hPa | 0 mm | - | - | - |
| 1778002218 | 18.33° C | 39% | 1012.3 hPa | 0 mm | - | - | - |
| 1778001618 | 18.33° C | 39% | 1011.9 hPa | 0 mm | - | - | - |
| 1778001019 | 18.33° C | 39% | 1012.2 hPa | 0 mm | - | - | - |
| 1778000418 | 18.89° C | 39% | 1012.3 hPa | 0 mm | - | - | - |
| 1777999818 | 18.33° C | 42% | 1012.1 hPa | 0 mm | - | - | - |
| 1777999218 | 18.33° C | 39% | 1011.9 hPa | 0 mm | - | - | - |
| 1777998618 | 18.89° C | 40% | 1012.3 hPa | 0 mm | - | - | - |
| 1777998018 | 17.78° C | 43% | 1012 hPa | 0 mm | - | - | - |
| 1777997437 | 16.67° C | 43% | 1011.7 hPa | 0 mm | - | - | - |
| 1777996818 | 15.56° C | 44% | 1011.1 hPa | 0 mm | - | - | - |
| 1777996218 | 15.56° C | 46% | 1011.3 hPa | 0 mm | - | - | - |
| 1777995618 | 15.56° C | 45% | 1011.2 hPa | 0 mm | - | - | - |
| 1777995018 | 15.56° C | 45% | 1011.1 hPa | 0 mm | - | - | - |
| 1777994418 | 15.56° C | 45% | 1011.1 hPa | 0 mm | - | - | - |
| 1777993818 | 15.56° C | 46% | 1010.7 hPa | 0 mm | - | - | - |
| 1777993218 | 15° C | 45% | 1010.6 hPa | 0 mm | - | - | - |
| 1777992618 | 15° C | 45% | 1010.6 hPa | 0 mm | - | - | - |
| 1777992018 | 14.44° C | 46% | 1010.8 hPa | 0 mm | - | - | - |
| 1777991418 | 13.89° C | 46% | 1010.7 hPa | 0 mm | - | - | - |
| 1777990818 | 13.33° C | 48% | 1010.3 hPa | 0 mm | - | - | - |
* Rain latest hour (hover to see other rain measurements)
** Current wind speed in m/s (hover to see current wind gust speed)